ID,year,month,day,hour,min,sec,day,traffic (cars/min),road name,,,,
[SCC]1GID1,2019,7,9,2,59,46,1,0,Sharrow Vale road,,,,
[SCC]1GID1,2019,7,9,3,59,46,1,0,Sharrow Vale road,,,,
[SCC]1GID1,2019,7,9,4,59,46,1,0,Sharrow Vale road,,,,
[SCC]1GID1,2019,7,9,5,59,46,1,0.8,Sharrow Vale road,,,,
[SCC]1GID1,2019,7,9,6,59,46,1,1.6,Sharrow Vale road,,,,
[SCC]1GID1,2019,7,9,7,59,46,1,3.2,Sharrow Vale road,,,,
[SCC]1GID1,2019,7,9,8,59,46,1,2.4,Sharrow Vale road,,,,
[SCC]1GID1,2019,7,9,9,59,46,1,4.8,Sharrow Vale road,,,,
[SCC]1GID1,2019,7,9,10,59,46,1,2.4,Sharrow Vale road,,,,
[SCC]1GID1,2019,7,9,11,59,46,1,3.2,Sharrow Vale road,,,,
[SCC]1GID1,2019,7,9,12,59,46,1,2.4,Sharrow Vale road,,,,
[SCC]1GID1,2019,7,9,13,59,46,1,4.8,Sharrow Vale road,,,,
[SCC]1GID1,2019,7,9,14,59,46,1,4.8,Sharrow Vale road,,,,
[SCC]1GID1,2019,7,9,15,59,46,1,3.2,Sharrow Vale road,,,,
[SCC]1GID1,2019,7,9,16,59,46,1,4.8,Sharrow Vale road,,,,
[SCC]1GID1,2019,7,9,17,59,46,1,2.4,Sharrow Vale road,,,,
[SCC]1GID1,2019,7,9,18,59,46,1,4.8,Sharrow Vale road,,,,
[SCC]1GID1,2019,7,9,19,59,46,1,1.6,Sharrow Vale road,,,,
[SCC]1GID1,2019,7,9,20,59,46,1,1.6,Sharrow Vale road,,,,
[SCC]1GID1,2019,7,9,21,59,46,1,0.8,Sharrow Vale road,,,,
[SCC]1GID1,2019,7,9,22,59,46,1,0,Sharrow Vale road,,,,
[SCC]1GID1,2019,7,10,0,59,45,2,0.8,Sharrow Vale road,,,,
[SCC]1GID1,2019,7,10,1,59,45,2,0,Sharrow Vale road,,,,
[SCC]1GID1,2019,7,10,2,59,45,2,0,Sharrow Vale road,,,,
[SCC]1GID1,2019,7,10,3,59,45,2,0,Sharrow Vale road,,,,
[SCC]1GID1,2019,7,10,4,59,45,2,0.8,Sharrow Vale road,,,,
[SCC]1GID1,2019,7,10,5,59,46,2,0,Sharrow Vale road,,,,
[SCC]1GID1,2019,7,10,6,59,47,2,0.8,Sharrow Vale road,,,,
[SCC]1GID1,2019,7,10,7,59,46,2,3.2,Sharrow Vale road,,,,
[SCC]1GID1,2019,7,10,8,59,46,2,5.6,Sharrow Vale road,,,,
[SCC]1GID1,2019,7,10,9,59,46,2,4,Sharrow Vale road,,,,
[SCC]1GID1,2019,7,10,10,59,46,2,3.2,Sharrow Vale road,,,,
[SCC]1GID1,2019,7,10,11,59,46,2,3.2,Sharrow Vale road,,,,
[SCC]1GID1,2019,7,10,12,59,46,2,4,Sharrow Vale road,,,,
[SCC]1GID1,2019,7,10,13,59,46,2,4,Sharrow Vale road,,,,
[SCC]1GID1,2019,7,10,14,59,46,2,6.4,Sharrow Vale road,,,,
[SCC]1GID1,2019,7,10,15,59,46,2,4,Sharrow Vale road,,,,
[SCC]1GID1,2019,7,10,16,59,46,2,4,Sharrow Vale road,,,,
[SCC]1GID1,2019,7,10,17,59,46,2,4,Sharrow Vale road,,,,
[SCC]1GID1,2019,7,10,18,59,46,2,3.2,Sharrow Vale road,,,,
[SCC]1GID1,2019,7,10,19,59,46,2,3.2,Sharrow Vale road,,,,
[SCC]1GID1,2019,7,10,20,59,46,2,2.4,Sharrow Vale road,,,,
[SCC]1GID1,2019,7,10,21,59,46,2,0.8,Sharrow Vale road,,,,
[SCC]1GID1,2019,7,10,22,59,46,2,0.8,Sharrow Vale road,,,,
[SCC]1GID1,2019,7,11,0,59,46,3,0.8,Sharrow Vale road,,,,
[SCC]1GID1,2019,7,11,1,59,46,3,0,Sharrow Vale road,,,,
[SCC]1GID1,2019,7,11,2,59,46,3,0,Sharrow Vale road,,,,
[SCC]1GID1,2019,7,11,3,59,46,3,0,Sharrow Vale road,,,,
[SCC]1GID1,2019,7,11,4,59,46,3,0,Sharrow Vale road,,,,
[SCC]1GID1,2019,7,11,5,59,46,3,0.8,Sharrow Vale road,,,,
[SCC]1GID1,2019,7,11,6,59,46,3,0.8,Sharrow Vale road,,,,
[SCC]1GID1,2019,7,11,7,59,45,3,4,Sharrow Vale road,,,,
[SCC]1GID1,2019,7,11,8,59,45,3,7.2,Sharrow Vale road,,,,
[SCC]1GID1,2019,7,11,9,59,46,3,2.4,Sharrow Vale road,,,,
[SCC]1GID1,2019,7,11,10,59,45,3,5.6,Sharrow Vale road,,,,
[SCC]1GID1,2019,7,11,11,59,45,3,4.8,Sharrow Vale road,,,,
[SCC]1GID1,2019,7,11,12,59,46,3,4,Sharrow Vale road,,,,
[SCC]1GID1,2019,7,11,13,59,46,3,4,Sharrow Vale road,,,,
[SCC]1GID1,2019,7,11,14,59,46,3,4,Sharrow Vale road,,,,
[SCC]1GID1,2019,7,11,15,59,47,3,5.6,Sharrow Vale road,,,,
[SCC]1GID1,2019,7,11,16,59,45,3,3.2,Sharrow Vale road,,,,
[SCC]1GID1,2019,7,11,17,59,46,3,4,Sharrow Vale road,,,,
[SCC]1GID1,2019,7,11,18,59,45,3,4.8,Sharrow Vale road,,,,
[SCC]1GID1,2019,7,11,19,59,45,3,1.6,Sharrow Vale road,,,,
[SCC]1GID1,2019,7,11,20,59,45,3,1.6,Sharrow Vale road,,,,
[SCC]1GID1,2019,7,11,21,59,45,3,1.6,Sharrow Vale road,,,,
[SCC]1GID1,2019,7,11,22,59,45,3,1.6,Sharrow Vale road,,,,
[SCC]1GID1,2019,7,12,0,59,45,4,0,Sharrow Vale road,,,,
[SCC]1GID1,2019,7,12,1,59,45,4,0,Sharrow Vale road,,,,
[SCC]1GID1,2019,7,12,2,59,45,4,0,Sharrow Vale road,,,,
[SCC]1GID1,2019,7,12,3,59,45,4,0,Sharrow Vale road,,,,
[SCC]1GID1,2019,7,12,4,59,45,4,0,Sharrow Vale road,,,,
[SCC]1GID1,2019,7,12,5,59,45,4,0,Sharrow Vale road,,,,
[SCC]1GID1,2019,7,12,6,59,46,4,0.8,Sharrow Vale road,,,,
[SCC]1GID1,2019,7,12,7,59,46,4,3.2,Sharrow Vale road,,,,
[SCC]1GID1,2019,7,12,8,59,46,4,6.4,Sharrow Vale road,,,,
[SCC]1GID1,2019,7,12,9,59,46,4,5.6,Sharrow Vale road,,,,
[SCC]1GID1,2019,7,12,10,59,46,4,4,Sharrow Vale road,,,,
[SCC]1GID1,2019,7,12,11,59,46,4,4.8,Sharrow Vale road,,,,
[SCC]1GID1,2019,7,12,12,59,46,4,5.6,Sharrow Vale road,,,,
[SCC]1GID1,2019,7,12,13,59,46,4,4.8,Sharrow Vale road,,,,
[SCC]1GID1,2019,7,12,14,59,46,4,4.8,Sharrow Vale road,,,,
[SCC]1GID1,2019,7,12,15,59,46,4,4,Sharrow Vale road,,,,
[SCC]1GID1,2019,7,12,16,59,46,4,4,Sharrow Vale road,,,,
[SCC]1GID1,2019,7,12,17,59,46,4,2.4,Sharrow Vale road,,,,
[SCC]1GID1,2019,7,12,18,59,45,4,4,Sharrow Vale road,,,,
[SCC]1GID1,2019,7,12,19,59,45,4,4,Sharrow Vale road,,,,
[SCC]1GID1,2019,7,12,20,59,45,4,1.6,Sharrow Vale road,,,,
[SCC]1GID1,2019,7,12,21,59,45,4,2.4,Sharrow Vale road,,,,
[SCC]1GID1,2019,7,12,22,59,45,4,2.4,Sharrow Vale road,,,,
[SCC]1GID1,2019,7,13,0,59,45,5,0,Sharrow Vale road,,,,
[SCC]1GID1,2019,7,13,1,59,49,5,0,Sharrow Vale road,,,,
[SCC]1GID1,2019,7,13,2,59,46,5,0,Sharrow Vale road,,,,
[SCC]1GID1,2019,7,13,3,59,47,5,0,Sharrow Vale road,,,,
[SCC]1GID1,2019,7,13,4,59,46,5,0,Sharrow Vale road,,,,
[SCC]1GID1,2019,7,13,5,59,46,5,0,Sharrow Vale road,,,,
[SCC]1GID1,2019,7,13,6,59,46,5,0.8,Sharrow Vale road,,,,
[SCC]1GID1,2019,7,13,7,59,46,5,1.6,Sharrow Vale road,,,,
[SCC]1GID1,2019,7,13,8,59,46,5,4,Sharrow Vale road,,,,
[SCC]1GID1,2019,7,13,9,59,47,5,4.8,Sharrow Vale road,,,,
[SCC]1GID1,2019,7,13,10,59,46,5,5.6,Sharrow Vale road,,,,
[SCC]1GID1,2019,7,13,11,59,46,5,4.8,Sharrow Vale road,,,,
[SCC]1GID1,2019,7,13,12,59,46,5,4,Sharrow Vale road,,,,
[SCC]1GID1,2019,7,13,13,59,46,5,3.2,Sharrow Vale road,,,,
[SCC]1GID1,2019,7,13,14,59,49,5,5.6,Sharrow Vale road,,,,
[SCC]1GID1,2019,7,13,15,59,47,5,2.4,Sharrow Vale road,,,,
[SCC]1GID1,2019,7,13,16,59,47,5,4,Sharrow Vale road,,,,
[SCC]1GID1,2019,7,13,17,59,49,5,3.2,Sharrow Vale road,,,,
[SCC]1GID1,2019,7,13,18,59,47,5,4.8,Sharrow Vale road,,,,
[SCC]1GID1,2019,7,13,19,59,49,5,2.4,Sharrow Vale road,,,,
[SCC]1GID1,2019,7,13,20,59,47,5,2.4,Sharrow Vale road,,,,
[SCC]1GID1,2019,7,13,21,59,47,5,2.4,Sharrow Vale road,,,,
[SCC]1GID1,2019,7,13,22,59,47,5,3.2,Sharrow Vale road,,,,
[SCC]1GID1,2019,7,14,0,59,47,6,0.8,Sharrow Vale road,,,,
[SCC]1GID1,2019,7,14,1,59,46,6,0,Sharrow Vale road,,,,
[SCC]1GID1,2019,7,14,2,59,47,6,0,Sharrow Vale road,,,,
[SCC]1GID1,2019,7,14,3,59,47,6,0.8,Sharrow Vale road,,,,
[SCC]1GID1,2019,7,14,4,59,47,6,0,Sharrow Vale road,,,,
[SCC]1GID1,2019,7,14,5,59,47,6,0,Sharrow Vale road,,,,
[SCC]1GID1,2019,7,14,6,59,46,6,0,Sharrow Vale road,,,,
[SCC]1GID1,2019,7,14,7,59,47,6,0.8,Sharrow Vale road,,,,
[SCC]1GID1,2019,7,14,8,59,47,6,0,Sharrow Vale road,,,,
[SCC]1GID1,2019,7,14,9,59,47,6,0,Sharrow Vale road,,,,
[SCC]1GID1,2019,7,14,10,59,47,6,0,Sharrow Vale road,,,,
[SCC]1GID1,2019,7,14,11,59,47,6,0,Sharrow Vale road,,,,
[SCC]1GID1,2019,7,14,12,59,47,6,0,Sharrow Vale road,,,,
[SCC]1GID1,2019,7,14,13,59,47,6,1.6,Sharrow Vale road,,,,
[SCC]1GID1,2019,7,14,14,59,47,6,0,Sharrow Vale road,,,,
[SCC]1GID1,2019,7,14,15,59,47,6,0.8,Sharrow Vale road,,,,
[SCC]1GID1,2019,7,14,16,59,47,6,2.4,Sharrow Vale road,,,,
[SCC]1GID1,2019,7,14,17,59,47,6,2.4,Sharrow Vale road,,,,
[SCC]1GID1,2019,7,14,18,59,47,6,1.6,Sharrow Vale road,,,,
[SCC]1GID1,2019,7,14,19,59,47,6,1.6,Sharrow Vale road,,,,
[SCC]1GID1,2019,7,14,20,59,47,6,1.6,Sharrow Vale road,,,,
[SCC]1GID1,2019,7,14,21,59,46,6,1.6,Sharrow Vale road,,,,
[SCC]1GID1,2019,7,14,22,59,47,6,0.8,Sharrow Vale road,,,,
[SCC]1GID1,2019,7,15,0,59,47,0,0,Sharrow Vale road,,,,
[SCC]1GID1,2019,7,15,1,59,47,0,0,Sharrow Vale road,,,,
[SCC]1GID1,2019,7,15,2,59,47,0,0,Sharrow Vale road,,,,
[SCC]1GID1,2019,7,15,3,59,48,0,0,Sharrow Vale road,,,,
[SCC]1GID1,2019,7,15,4,59,48,0,0,Sharrow Vale road,,,,
[SCC]1GID1,2019,7,15,5,59,48,0,0,Sharrow Vale road,,,,
[SCC]1GID1,2019,7,15,6,59,47,0,0.8,Sharrow Vale road,,,,
[SCC]1GID1,2019,7,15,7,59,47,0,3.2,Sharrow Vale road,,,,
[SCC]1GID1,2019,7,15,8,59,47,0,4.8,Sharrow Vale road,,,,
[SCC]1GID1,2019,7,15,9,59,47,0,3.2,Sharrow Vale road,,,,
[SCC]1GID1,2019,7,15,10,59,47,0,4,Sharrow Vale road,,,,
[SCC]1GID1,2019,7,15,11,59,47,0,3.2,Sharrow Vale road,,,,
[SCC]1GID1,2019,7,15,12,59,47,0,2.4,Sharrow Vale road,,,,
[SCC]1GID1,2019,7,15,13,59,47,0,4.8,Sharrow Vale road,,,,
[SCC]1GID1,2019,7,15,14,59,47,0,4,Sharrow Vale road,,,,
[SCC]1GID1,2019,7,15,15,59,47,0,1.6,Sharrow Vale road,,,,
[SCC]1GID1,2019,7,15,16,59,47,0,4,Sharrow Vale road,,,,
[SCC]1GID1,2019,7,15,17,59,47,0,3.2,Sharrow Vale road,,,,
[SCC]1GID1,2019,7,15,18,59,47,0,1.6,Sharrow Vale road,,,,
[SCC]1GID1,2019,7,15,19,59,46,0,2.4,Sharrow Vale road,,,,
[SCC]1GID1,2019,7,15,20,59,47,0,1.6,Sharrow Vale road,,,,
[SCC]1GID1,2019,7,15,21,59,47,0,0,Sharrow Vale road,,,,
[SCC]1GID1,2019,7,15,22,59,46,0,1.6,Sharrow Vale road,,,,
[SCC]1GID1,2019,7,16,0,59,46,1,0,Sharrow Vale road,,,,
[SCC]1GID1,2019,7,16,1,59,46,1,0.8,Sharrow Vale road,,,,
[SCC]1GID1,2019,7,16,2,59,46,1,0,Sharrow Vale road,,,,
[SCC]1GID1,2019,7,16,3,59,46,1,0,Sharrow Vale road,,,,
[SCC]1GID1,2019,7,16,4,59,46,1,0,Sharrow Vale road,,,,
[SCC]1GID1,2019,7,16,5,59,46,1,0.8,Sharrow Vale road,,,,
[SCC]1GID1,2019,7,16,6,59,48,1,0.8,Sharrow Vale road,,,,
[SCC]1GID1,2019,7,16,7,59,47,1,4,Sharrow Vale road,,,,
[SCC]1GID1,2019,7,16,8,59,47,1,4,Sharrow Vale road,,,,
[SCC]1GID1,2019,7,16,9,59,47,1,4,Sharrow Vale road,,,,
[SCC]1GID1,2019,7,16,10,59,47,1,3.2,Sharrow Vale road,,,,
[SCC]1GID1,2019,7,16,11,59,47,1,4.8,Sharrow Vale road,,,,
[SCC]1GID1,2019,7,16,12,59,47,1,4.8,Sharrow Vale road,,,,
[SCC]1GID1,2019,7,16,13,59,47,1,3.2,Sharrow Vale road,,,,
[SCC]1GID1,2019,7,16,14,59,48,1,4.8,Sharrow Vale road,,,,
[SCC]1GID1,2019,7,16,15,59,47,1,3.2,Sharrow Vale road,,,,
[SCC]1GID1,2019,7,16,16,59,47,1,4,Sharrow Vale road,,,,
[SCC]1GID1,2019,7,16,17,59,47,1,2.4,Sharrow Vale road,,,,
[SCC]1GID1,2019,7,16,18,59,47,1,4,Sharrow Vale road,,,,
[SCC]1GID1,2019,7,16,19,59,46,1,4,Sharrow Vale road,,,,
[SCC]1GID1,2019,7,16,20,59,46,1,0.8,Sharrow Vale road,,,,
[SCC]1GID1,2019,7,16,21,59,47,1,1.6,Sharrow Vale road,,,,
[SCC]1GID1,2019,7,16,22,59,47,1,1.6,Sharrow Vale road,,,,
[SCC]1GID1,2019,7,17,0,59,46,2,0.8,Sharrow Vale road,,,,
[SCC]1GID1,2019,7,17,1,59,46,2,0,Sharrow Vale road,,,,
[SCC]1GID1,2019,7,17,2,59,46,2,0,Sharrow Vale road,,,,
[SCC]1GID1,2019,7,17,3,59,46,2,0,Sharrow Vale road,,,,
[SCC]1GID1,2019,7,17,4,59,46,2,0,Sharrow Vale road,,,,
[SCC]1GID1,2019,7,17,5,59,46,2,0.8,Sharrow Vale road,,,,
[SCC]1GID1,2019,7,17,6,59,47,2,1.6,Sharrow Vale road,,,,
[SCC]1GID1,2019,7,17,7,59,47,2,2.4,Sharrow Vale road,,,,
[SCC]1GID1,2019,7,17,8,59,46,2,3.2,Sharrow Vale road,,,,
[SCC]1GID1,2019,7,17,9,59,47,2,4,Sharrow Vale road,,,,
[SCC]1GID1,2019,7,17,10,59,47,2,4,Sharrow Vale road,,,,
[SCC]1GID1,2019,7,17,11,59,47,2,4.8,Sharrow Vale road,,,,
[SCC]1GID1,2019,7,17,12,59,47,2,4,Sharrow Vale road,,,,
[SCC]1GID1,2019,7,17,13,59,47,2,4,Sharrow Vale road,,,,
[SCC]1GID1,2019,7,17,14,59,47,2,5.6,Sharrow Vale road,,,,
[SCC]1GID1,2019,7,17,15,59,47,2,4.8,Sharrow Vale road,,,,
[SCC]1GID1,2019,7,17,16,59,46,2,4.8,Sharrow Vale road,,,,
[SCC]1GID1,2019,7,17,17,59,47,2,3.2,Sharrow Vale road,,,,
[SCC]1GID1,2019,7,17,18,59,47,2,4,Sharrow Vale road,,,,
[SCC]1GID1,2019,7,17,19,59,47,2,2.4,Sharrow Vale road,,,,
[SCC]1GID1,2019,7,17,20,59,46,2,1.6,Sharrow Vale road,,,,
[SCC]1GID1,2019,7,17,21,59,47,2,2.4,Sharrow Vale road,,,,
[SCC]1GID1,2019,7,17,22,59,46,2,0.8,Sharrow Vale road,,,,
[SCC]1GID1,2019,7,18,0,59,46,3,0,Sharrow Vale road,,,,
[SCC]1GID1,2019,7,18,1,59,46,3,0,Sharrow Vale road,,,,
[SCC]1GID1,2019,7,18,2,59,46,3,0,Sharrow Vale road,,,,
[SCC]1GID1,2019,7,18,3,59,46,3,0,Sharrow Vale road,,,,
[SCC]1GID1,2019,7,18,4,59,46,3,0,Sharrow Vale road,,,,
[SCC]1GID1,2019,7,18,5,59,46,3,0,Sharrow Vale road,,,,
[SCC]1GID1,2019,7,18,6,59,49,3,3.2,Sharrow Vale road,,,,
[SCC]1GID1,2019,7,18,7,59,46,3,3.2,Sharrow Vale road,,,,
[SCC]1GID1,2019,7,18,8,59,46,3,2.4,Sharrow Vale road,,,,
[SCC]1GID1,2019,7,18,9,59,46,3,4.8,Sharrow Vale road,,,,
[SCC]1GID1,2019,7,18,10,59,46,3,3.2,Sharrow Vale road,,,,
[SCC]1GID1,2019,7,18,11,59,47,3,4,Sharrow Vale road,,,,
[SCC]1GID1,2019,7,18,12,59,47,3,4,Sharrow Vale road,,,,
[SCC]1GID1,2019,7,18,13,59,47,3,4,Sharrow Vale road,,,,
[SCC]1GID1,2019,7,18,14,59,47,3,5.6,Sharrow Vale road,,,,
[SCC]1GID1,2019,7,18,15,59,57,3,4,Sharrow Vale road,,,,
[SCC]1GID1,2019,7,18,16,59,52,3,4.8,Sharrow Vale road,,,,
[SCC]1GID1,2019,7,18,17,59,54,3,3.2,Sharrow Vale road,,,,
[SCC]1GID1,2019,7,18,18,59,54,3,4.8,Sharrow Vale road,,,,
[SCC]1GID1,2019,7,18,19,59,51,3,4,Sharrow Vale road,,,,
[SCC]1GID1,2019,7,18,20,59,51,3,3.2,Sharrow Vale road,,,,
[SCC]1GID1,2019,7,18,21,59,53,3,1.6,Sharrow Vale road,,,,
[SCC]1GID1,2019,7,18,22,59,51,3,1.6,Sharrow Vale road,,,,
[SCC]1GID1,2019,7,19,0,59,51,4,0.8,Sharrow Vale road,,,,
[SCC]1GID1,2019,7,19,1,59,51,4,0,Sharrow Vale road,,,,
[SCC]1GID1,2019,7,19,2,59,51,4,0.8,Sharrow Vale road,,,,
[SCC]1GID1,2019,7,19,3,59,51,4,0,Sharrow Vale road,,,,
[SCC]1GID1,2019,7,19,4,59,51,4,0,Sharrow Vale road,,,,
[SCC]1GID1,2019,7,19,5,59,51,4,0.8,Sharrow Vale road,,,,
[SCC]1GID1,2019,7,19,7,0,1,4,0.8,Sharrow Vale road,,,,
[SCC]1GID1,2019,7,19,7,59,51,4,1.6,Sharrow Vale road,,,,
[SCC]1GID1,2019,7,19,8,59,51,4,5.6,Sharrow Vale road,,,,
[SCC]1GID1,2019,7,19,9,59,55,4,3.2,Sharrow Vale road,,,,
[SCC]1GID1,2019,7,19,10,59,52,4,5.6,Sharrow Vale road,,,,
[SCC]1GID1,2019,7,19,11,59,53,4,4,Sharrow Vale road,,,,
[SCC]1GID1,2019,7,19,12,59,52,4,4,Sharrow Vale road,,,,
[SCC]1GID1,2019,7,19,13,59,46,4,3.2,Sharrow Vale road,,,,
[SCC]1GID1,2019,7,19,15,0,7,4,5.6,Sharrow Vale road,,,,
[SCC]1GID1,2019,7,19,15,59,53,4,4.8,Sharrow Vale road,,,,
[SCC]1GID1,2019,7,19,16,59,52,4,3.2,Sharrow Vale road,,,,
[SCC]1GID1,2019,7,19,17,59,53,4,3.2,Sharrow Vale road,,,,
[SCC]1GID1,2019,7,19,18,59,54,4,3.2,Sharrow Vale road,,,,
[SCC]1GID1,2019,7,19,19,59,51,4,3.2,Sharrow Vale road,,,,
[SCC]1GID1,2019,7,19,20,59,51,4,2.4,Sharrow Vale road,,,,
[SCC]1GID1,2019,7,19,21,59,52,4,2.4,Sharrow Vale road,,,,
[SCC]1GID1,2019,7,19,22,59,51,4,3.2,Sharrow Vale road,,,,
[SCC]1GID1,2019,7,20,0,59,51,5,1.6,Sharrow Vale road,,,,
[SCC]1GID1,2019,7,20,1,59,51,5,0,Sharrow Vale road,,,,
[SCC]1GID1,2019,7,20,2,59,51,5,0,Sharrow Vale road,,,,
[SCC]1GID1,2019,7,20,3,59,51,5,0,Sharrow Vale road,,,,
[SCC]1GID1,2019,7,20,4,59,51,5,0,Sharrow Vale road,,,,
[SCC]1GID1,2019,7,20,5,59,51,5,0.8,Sharrow Vale road,,,,
[SCC]1GID1,2019,7,20,6,59,54,5,0,Sharrow Vale road,,,,
[SCC]1GID1,2019,7,20,7,59,54,5,0.8,Sharrow Vale road,,,,
[SCC]1GID1,2019,7,20,8,59,51,5,1.6,Sharrow Vale road,,,,
[SCC]1GID1,2019,7,20,9,59,54,5,4.8,Sharrow Vale road,,,,
[SCC]1GID1,2019,7,20,10,59,52,5,4,Sharrow Vale road,,,,
[SCC]1GID1,2019,7,20,11,59,53,5,5.6,Sharrow Vale road,,,,
[SCC]1GID1,2019,7,20,12,59,52,5,3.2,Sharrow Vale road,,,,
[SCC]1GID1,2019,7,20,13,59,52,5,2.4,Sharrow Vale road,,,,
[SCC]1GID1,2019,7,20,14,59,53,5,2.4,Sharrow Vale road,,,,
[SCC]1GID1,2019,7,20,15,59,51,5,3.2,Sharrow Vale road,,,,
[SCC]1GID1,2019,7,20,16,59,52,5,2.4,Sharrow Vale road,,,,
[SCC]1GID1,2019,7,20,17,59,53,5,2.4,Sharrow Vale road,,,,
[SCC]1GID1,2019,7,20,18,59,53,5,2.4,Sharrow Vale road,,,,
[SCC]1GID1,2019,7,20,19,59,51,5,3.2,Sharrow Vale road,,,,
[SCC]1GID1,2019,7,20,20,59,51,5,2.4,Sharrow Vale road,,,,
[SCC]1GID1,2019,7,20,21,59,52,5,1.6,Sharrow Vale road,,,,
[SCC]1GID1,2019,7,20,22,59,51,5,0.8,Sharrow Vale road,,,,
[SCC]1GID1,2019,7,21,0,59,51,6,0.8,Sharrow Vale road,,,,
[SCC]1GID1,2019,7,21,1,59,51,6,0,Sharrow Vale road,,,,
[SCC]1GID1,2019,7,21,2,59,51,6,0,Sharrow Vale road,,,,
[SCC]1GID1,2019,7,21,3,59,51,6,0,Sharrow Vale road,,,,
[SCC]1GID1,2019,7,21,4,59,51,6,0.8,Sharrow Vale road,,,,
[SCC]1GID1,2019,7,21,5,59,51,6,0,Sharrow Vale road,,,,
[SCC]1GID1,2019,7,21,6,59,52,6,0.8,Sharrow Vale road,,,,
[SCC]1GID1,2019,7,21,7,59,51,6,0,Sharrow Vale road,,,,
[SCC]1GID1,2019,7,21,8,59,51,6,0.8,Sharrow Vale road,,,,
[SCC]1GID1,2019,7,21,9,59,51,6,1.6,Sharrow Vale road,,,,
[SCC]1GID1,2019,7,21,10,59,51,6,4,Sharrow Vale road,,,,
[SCC]1GID1,2019,7,21,11,59,51,6,3.2,Sharrow Vale road,,,,
[SCC]1GID1,2019,7,21,12,59,47,6,2.4,Sharrow Vale road,,,,
[SCC]1GID1,2019,7,21,13,59,51,6,2.4,Sharrow Vale road,,,,
[SCC]1GID1,2019,7,21,14,59,52,6,3.2,Sharrow Vale road,,,,
[SCC]1GID1,2019,7,21,15,59,51,6,0.8,Sharrow Vale road,,,,
[SCC]1GID1,2019,7,21,16,59,51,6,3.2,Sharrow Vale road,,,,
[SCC]1GID1,2019,7,21,17,59,51,6,0.8,Sharrow Vale road,,,,
[SCC]1GID1,2019,7,21,18,59,51,6,2.4,Sharrow Vale road,,,,
[SCC]1GID1,2019,7,21,19,59,52,6,1.6,Sharrow Vale road,,,,
[SCC]1GID1,2019,7,21,20,59,51,6,1.6,Sharrow Vale road,,,,
[SCC]1GID1,2019,7,21,21,59,52,6,0.8,Sharrow Vale road,,,,
[SCC]1GID1,2019,7,21,22,59,51,6,0.8,Sharrow Vale road,,,,
[SCC]1GID1,2019,7,22,0,59,51,0,0,Sharrow Vale road,,,,
[SCC]1GID1,2019,7,22,1,59,51,0,0,Sharrow Vale road,,,,
[SCC]1GID1,2019,7,22,2,59,51,0,0,Sharrow Vale road,,,,
[SCC]1GID1,2019,7,22,3,59,51,0,0,Sharrow Vale road,,,,
[SCC]1GID1,2019,7,22,4,59,52,0,0,Sharrow Vale road,,,,
[SCC]1GID1,2019,7,22,5,59,52,0,0.8,Sharrow Vale road,,,,
[SCC]1GID1,2019,7,22,7,0,2,0,0.8,Sharrow Vale road,,,,
[SCC]1GID1,2019,7,22,7,59,51,0,1.6,Sharrow Vale road,,,,
[SCC]1GID1,2019,7,22,8,59,52,0,1.6,Sharrow Vale road,,,,
[SCC]1GID1,2019,7,22,9,59,51,0,3.2,Sharrow Vale road,,,,
[SCC]1GID1,2019,7,22,10,59,50,0,2.4,Sharrow Vale road,,,,
[SCC]1GID1,2019,7,22,11,59,51,0,4,Sharrow Vale road,,,,
[SCC]1GID1,2019,7,22,12,59,50,0,4,Sharrow Vale road,,,,
[SCC]1GID1,2019,7,22,13,59,50,0,4,Sharrow Vale road,,,,
[SCC]1GID1,2019,7,22,14,59,55,0,4,Sharrow Vale road,,,,
[SCC]1GID1,2019,7,22,15,59,46,0,3.2,Sharrow Vale road,,,,
[SCC]1GID1,2019,7,22,16,59,51,0,0.8,Sharrow Vale road,,,,
[SCC]1GID1,2019,7,22,17,59,46,0,3.2,Sharrow Vale road,,,,
[SCC]1GID1,2019,7,22,18,59,52,0,3.2,Sharrow Vale road,,,,
[SCC]1GID1,2019,7,22,19,59,50,0,3.2,Sharrow Vale road,,,,
[SCC]1GID1,2019,7,22,20,59,50,0,2.4,Sharrow Vale road,,,,
[SCC]1GID1,2019,7,22,21,59,52,0,0,Sharrow Vale road,,,,
[SCC]1GID1,2019,7,22,22,59,50,0,0.8,Sharrow Vale road,,,,
[SCC]1GID1,2019,7,23,0,59,50,1,0.8,Sharrow Vale road,,,,
[SCC]1GID1,2019,7,23,1,59,50,1,0,Sharrow Vale road,,,,
[SCC]1GID1,2019,7,23,2,59,50,1,0,Sharrow Vale road,,,,
[SCC]1GID1,2019,7,23,3,59,50,1,0,Sharrow Vale road,,,,
[SCC]1GID1,2019,7,23,4,59,50,1,0.8,Sharrow Vale road,,,,
[SCC]1GID1,2019,7,23,5,59,50,1,0,Sharrow Vale road,,,,
[SCC]1GID1,2019,7,23,6,59,59,1,0.8,Sharrow Vale road,,,,
[SCC]1GID1,2019,7,23,7,59,51,1,3.2,Sharrow Vale road,,,,
[SCC]1GID1,2019,7,23,8,59,51,1,2.4,Sharrow Vale road,,,,
[SCC]1GID1,2019,7,23,9,59,51,1,5.6,Sharrow Vale road,,,,
[SCC]1GID1,2019,7,23,10,59,50,1,4.8,Sharrow Vale road,,,,
[SCC]1GID1,2019,7,23,11,59,51,1,2.4,Sharrow Vale road,,,,
[SCC]1GID1,2019,7,23,12,59,50,1,5.6,Sharrow Vale road,,,,
[SCC]1GID1,2019,7,23,13,59,50,1,3.2,Sharrow Vale road,,,,
[SCC]1GID1,2019,7,23,14,59,56,1,3.2,Sharrow Vale road,,,,
[SCC]1GID1,2019,7,23,15,59,54,1,4,Sharrow Vale road,,,,
[SCC]1GID1,2019,7,23,16,59,52,1,3.2,Sharrow Vale road,,,,
[SCC]1GID1,2019,7,23,17,59,52,1,2.4,Sharrow Vale road,,,,
[SCC]1GID1,2019,7,23,18,59,53,1,2.4,Sharrow Vale road,,,,
[SCC]1GID1,2019,7,23,19,59,51,1,2.4,Sharrow Vale road,,,,
[SCC]1GID1,2019,7,23,20,59,50,1,2.4,Sharrow Vale road,,,,
[SCC]1GID1,2019,7,23,21,59,51,1,1.6,Sharrow Vale road,,,,
[SCC]1GID1,2019,7,23,22,59,51,1,0.8,Sharrow Vale road,,,,
[SCC]1GID1,2019,7,24,0,59,51,2,0,Sharrow Vale road,,,,
[SCC]1GID1,2019,7,24,1,59,50,2,0,Sharrow Vale road,,,,
[SCC]1GID1,2019,7,24,2,59,50,2,0,Sharrow Vale road,,,,
[SCC]1GID1,2019,7,24,3,59,50,2,0,Sharrow Vale road,,,,
[SCC]1GID1,2019,7,24,4,59,50,2,0,Sharrow Vale road,,,,
[SCC]1GID1,2019,7,24,5,59,50,2,0.8,Sharrow Vale road,,,,
[SCC]1GID1,2019,7,24,6,59,59,2,0.8,Sharrow Vale road,,,,
[SCC]1GID1,2019,7,24,7,59,51,2,3.2,Sharrow Vale road,,,,
[SCC]1GID1,2019,7,24,8,59,51,2,2.4,Sharrow Vale road,,,,
[SCC]1GID1,2019,7,24,9,59,51,2,4,Sharrow Vale road,,,,
[SCC]1GID1,2019,7,24,10,59,52,2,3.2,Sharrow Vale road,,,,
[SCC]1GID1,2019,7,24,11,59,53,2,4,Sharrow Vale road,,,,
[SCC]1GID1,2019,7,24,12,59,52,2,2.4,Sharrow Vale road,,,,
[SCC]1GID1,2019,7,24,13,59,52,2,3.2,Sharrow Vale road,,,,
[SCC]1GID1,2019,7,24,14,59,56,2,3.2,Sharrow Vale road,,,,
[SCC]1GID1,2019,7,24,15,59,57,2,3.2,Sharrow Vale road,,,,
[SCC]1GID1,2019,7,24,16,59,52,2,3.2,Sharrow Vale road,,,,
[SCC]1GID1,2019,7,24,17,59,53,2,3.2,Sharrow Vale road,,,,
[SCC]1GID1,2019,7,24,18,59,55,2,4.8,Sharrow Vale road,,,,
[SCC]1GID1,2019,7,24,19,59,52,2,2.4,Sharrow Vale road,,,,
[SCC]1GID1,2019,7,24,20,59,52,2,1.6,Sharrow Vale road,,,,
[SCC]1GID1,2019,7,24,21,59,53,2,1.6,Sharrow Vale road,,,,
[SCC]1GID1,2019,7,24,22,59,52,2,1.6,Sharrow Vale road,,,,
[SCC]1GID1,2019,7,25,0,59,52,3,0.8,Sharrow Vale road,,,,
[SCC]1GID1,2019,7,25,1,59,51,3,0,Sharrow Vale road,,,,
[SCC]1GID1,2019,7,25,2,59,52,3,0,Sharrow Vale road,,,,
[SCC]1GID1,2019,7,25,3,59,51,3,0,Sharrow Vale road,,,,
[SCC]1GID1,2019,7,25,4,59,51,3,0.8,Sharrow Vale road,,,,
[SCC]1GID1,2019,7,25,5,59,52,3,0.8,Sharrow Vale road,,,,
[SCC]1GID1,2019,7,25,7,0,1,3,2.4,Sharrow Vale road,,,,
[SCC]1GID1,2019,7,25,7,59,52,3,2.4,Sharrow Vale road,,,,
[SCC]1GID1,2019,7,25,8,59,52,3,3.2,Sharrow Vale road,,,,
[SCC]1GID1,2019,7,25,9,59,53,3,4.8,Sharrow Vale road,,,,
[SCC]1GID1,2019,7,25,10,59,52,3,4,Sharrow Vale road,,,,
[SCC]1GID1,2019,7,25,11,59,53,3,4,Sharrow Vale road,,,,
[SCC]1GID1,2019,7,25,12,59,52,3,4,Sharrow Vale road,,,,
[SCC]1GID1,2019,7,25,13,59,52,3,3.2,Sharrow Vale road,,,,
[SCC]1GID1,2019,7,25,14,59,56,3,4,Sharrow Vale road,,,,
[SCC]1GID1,2019,7,25,15,59,46,3,1.6,Sharrow Vale road,,,,
[SCC]1GID1,2019,7,25,16,59,51,3,1.6,Sharrow Vale road,,,,
[SCC]1GID1,2019,7,25,17,59,46,3,3.2,Sharrow Vale road,,,,
[SCC]1GID1,2019,7,25,18,59,53,3,4,Sharrow Vale road,,,,
[SCC]1GID1,2019,7,25,19,59,51,3,2.4,Sharrow Vale road,,,,
[SCC]1GID1,2019,7,25,20,59,52,3,2.4,Sharrow Vale road,,,,
[SCC]1GID1,2019,7,25,21,59,52,3,2.4,Sharrow Vale road,,,,
[SCC]1GID1,2019,7,25,22,59,51,3,1.6,Sharrow Vale road,,,,
[SCC]1GID1,2019,7,26,0,59,51,4,0,Sharrow Vale road,,,,
[SCC]1GID1,2019,7,26,1,59,51,4,0,Sharrow Vale road,,,,
[SCC]1GID1,2019,7,26,2,59,51,4,0,Sharrow Vale road,,,,
[SCC]1GID1,2019,7,26,3,59,51,4,0,Sharrow Vale road,,,,
[SCC]1GID1,2019,7,26,4,59,51,4,0,Sharrow Vale road,,,,
[SCC]1GID1,2019,7,26,5,59,51,4,0,Sharrow Vale road,,,,
[SCC]1GID1,2019,7,26,7,0,2,4,0.8,Sharrow Vale road,,,,
[SCC]1GID1,2019,7,26,7,59,51,4,1.6,Sharrow Vale road,,,,
[SCC]1GID1,2019,7,26,8,59,51,4,3.2,Sharrow Vale road,,,,
[SCC]1GID1,2019,7,26,9,59,53,4,4,Sharrow Vale road,,,,
[SCC]1GID1,2019,7,26,10,59,51,4,6.4,Sharrow Vale road,,,,
[SCC]1GID1,2019,7,26,11,59,53,4,3.2,Sharrow Vale road,,,,
[SCC]1GID1,2019,7,26,12,59,51,4,4.8,Sharrow Vale road,,,,
[SCC]1GID1,2019,7,26,13,59,51,4,4.8,Sharrow Vale road,,,,
[SCC]1GID1,2019,7,26,14,59,56,4,5.6,Sharrow Vale road,,,,
[SCC]1GID1,2019,7,26,15,59,52,4,3.2,Sharrow Vale road,,,,
[SCC]1GID1,2019,7,26,16,59,58,4,3.2,Sharrow Vale road,,,,
[SCC]1GID1,2019,7,26,17,59,52,4,2.4,Sharrow Vale road,,,,
[SCC]1GID1,2019,7,26,18,59,53,4,4,Sharrow Vale road,,,,
[SCC]1GID1,2019,7,26,19,59,51,4,3.2,Sharrow Vale road,,,,
[SCC]1GID1,2019,7,26,20,59,51,4,3.2,Sharrow Vale road,,,,
[SCC]1GID1,2019,7,26,21,59,52,4,1.6,Sharrow Vale road,,,,
[SCC]1GID1,2019,7,26,22,59,50,4,1.6,Sharrow Vale road,,,,
[SCC]1GID1,2019,7,27,0,59,51,5,0,Sharrow Vale road,,,,
[SCC]1GID1,2019,7,27,1,59,50,5,0.8,Sharrow Vale road,,,,